Погода в Комарове

Россия / Чеченская Республика     43°31′19″N   45°02′31″E
темп.,
°C
ветер,
м/с
пор.,
м/с
влажн.,
%
обл.,
%
осадки,
мм/ч
давл.,
гПа
погр.,
м
12 апреля, пн
пн1200:00+8зсз33756 0.0 101637
03:00+8з3477100 0.0 101691
06:00+8з3681100 0.0 1018156
09:00+13зсз5663100 0.0 1019825
12:00+15сз4458100 0.0 10191375
15:00+13сз4467100 0.0 1020763
18:00+11зсз4581100 0.0 1022368
21:00+10зсз3582100 0.1 1022339
13 апреля, вт
вт1300:00+9зсз3485100 0.2 1022260
03:00+9зсз2486100 0.5 1022215
06:00+9зсз2387100 0.1 1022162
09:00+10зсз2280100 0.1 1022348
12:00+13ссз227082 0.0 1021826
15:00+14ссв2268100 0.1 1020727
18:00+13зсз227483 0.0 101955
21:00+11сз2489100 0.2 1019189
14 апреля, ср
ср1400:00+11з2592100 0.4 1017294
03:00+10з2591100 0.4 1016311
06:00+10зюз3690100 0.0 1015279
09:00+12з4579100 0.1 1016678
12:00+13зсз4474100 0.3 1016664
15:00+14сз4469100 0.6 1016838
18:00+12зсз5678100 0.3 1017468
21:00+10з3687100 0.3 1018180
15 апреля, чт
чт1500:00+10юз2387100 0.0 101776
03:00+9зюз1184100 0.0 101713
06:00+9з2283100 0.0 101728
09:00+14сз2361100 0.0 1016668
12:00+17с334848 0.0 10151244
15:00+19с33400 0.0 10131562
18:00+16ссв22500 0.0 101414
21:00+13ююв1155100 0.0 101410
16 апреля, пт
пт1600:00+12ю115728 0.0 101310
03:00+11ююз11625 0.0 101310
06:00+10з226611 0.0 101418
09:00+15зсз4457100 0.0 1015474
12:00+18сз4353100 0.0 10151485
15:00+15зсз7668100 0.3 1015646
18:00+11сз5890100 3.8 1017438
21:00+10ссз129191 7.3 1018236